Time,TemperatureF,DewpointF,PressureIn,WindDirection,WindDirectionDegrees,WindSpeedMPH,WindSpeedGustMPH,Humidity,HourlyPrecipIn,Conditions,Clouds,dailyrainin,SoftwareType,DateUTC
2013-03-15 00:00:00,28.8,14.3,29.92,SSE,155,0.0,2.0,54,0.00,,,0.00,WeatherCatV1.02B3,2013-03-15 04:00:00,
2013-03-15 00:01:00,28.8,14.3,29.93,SSE,155,1.0,3.0,54,0.00,,,0.00,WeatherCatV1.02B3,2013-03-15 04:01:00,
2013-03-15 00:06:00,28.8,14.7,29.93,SSE,155,0.0,1.0,55,0.00,,,0.00,WeatherCatV1.02B3,2013-03-15 04:06:00,
2013-03-15 00:11:00,28.8,14.3,29.93,SSE,155,3.0,9.0,54,0.00,,,0.00,WeatherCatV1.02B3,2013-03-15 04:11:00,
2013-03-15 00:16:00,28.8,14.7,29.93,SSE,155,0.0,3.0,55,0.00,,,0.00,WeatherCatV1.02B3,2013-03-15 04:16:00,
2013-03-15 00:21:00,28.8,14.7,29.93,SSE,155,3.0,3.0,55,0.00,,,0.00,WeatherCatV1.02B3,2013-03-15 04:21:00,
2013-03-15 00:26:00,28.8,14.3,29.93,SSE,155,0.0,2.0,54,0.00,,,0.00,WeatherCatV1.02B3,2013-03-15 04:26:00,
2013-03-15 00:31:00,28.8,14.3,29.93,SSE,155,1.0,7.0,54,0.00,,,0.00,WeatherCatV1.02B3,2013-03-15 04:31:00,
2013-03-15 00:36:00,28.7,14.2,29.93,SSE,155,2.0,2.0,54,0.00,,,0.00,WeatherCatV1.02B3,2013-03-15 04:36:00,
2013-03-15 00:41:00,28.6,14.1,29.93,SSE,155,0.0,6.0,54,0.00,,,0.00,WeatherCatV1.02B3,2013-03-15 04:41:00,
2013-03-15 00:46:00,28.6,14.1,29.93,SSE,155,1.0,7.0,54,0.00,,,0.00,WeatherCatV1.02B3,2013-03-15 04:46:00,
2013-03-15 00:51:00,28.4,13.9,29.92,SSE,155,0.0,2.0,54,0.00,,,0.00,WeatherCatV1.02B3,2013-03-15 04:51:00,
2013-03-15 00:56:00,28.4,13.5,29.92,SSE,155,3.0,7.0,53,0.00,,,0.00,WeatherCatV1.02B3,2013-03-15 04:56:00,
2013-03-15 01:01:00,28.5,13.6,29.93,SSE,155,1.0,3.0,53,0.00,,,0.00,WeatherCatV1.02B3,2013-03-15 05:01:00,
2013-03-15 01:06:00,28.5,13.6,29.93,SSE,155,3.0,9.0,53,0.00,,,0.00,WeatherCatV1.02B3,2013-03-15 05:06:00,
2013-03-15 01:11:00,28.3,13.4,29.93,SSE,155,2.0,6.0,53,0.00,,,0.00,WeatherCatV1.02B3,2013-03-15 05:11:00,
2013-03-15 01:16:00,28.5,13.1,29.93,SSE,155,0.0,3.0,52,0.00,,,0.00,WeatherCatV1.02B3,2013-03-15 05:16:00,
2013-03-15 01:21:00,28.5,13.1,29.93,SSE,155,1.0,4.0,52,0.00,,,0.00,WeatherCatV1.02B3,2013-03-15 05:21:00,
2013-03-15 01:26:00,28.4,13.5,29.93,SSE,155,1.0,4.0,53,0.00,,,0.00,WeatherCatV1.02B3,2013-03-15 05:26:00,
2013-03-15 01:31:00,28.3,13.0,29.93,SSE,155,3.0,4.0,52,0.00,,,0.00,WeatherCatV1.02B3,2013-03-15 05:31:00,
2013-03-15 01:36:00,28.5,13.6,29.93,SSE,155,4.0,4.0,53,0.00,,,0.00,WeatherCatV1.02B3,2013-03-15 05:36:00,
2013-03-15 01:41:00,28.4,13.0,29.93,SSE,155,3.0,9.0,52,0.00,,,0.00,WeatherCatV1.02B3,2013-03-15 05:41:00,
2013-03-15 01:46:00,28.4,12.6,29.93,SSE,155,0.0,6.0,51,0.00,,,0.00,WeatherCatV1.02B3,2013-03-15 05:46:00,
2013-03-15 01:51:00,28.2,12.9,29.93,SSE,155,1.0,4.0,52,0.00,,,0.00,WeatherCatV1.02B3,2013-03-15 05:51:00,
2013-03-15 01:56:00,28.2,13.3,29.93,SSE,155,3.0,3.0,53,0.00,,,0.00,WeatherCatV1.02B3,2013-03-15 05:56:00,
2013-03-15 02:01:00,28.3,13.0,29.93,SSE,155,6.0,8.0,52,0.00,,,0.00,WeatherCatV1.02B3,2013-03-15 06:01:00,
2013-03-15 02:06:00,28.3,12.5,29.93,SSE,155,3.0,3.0,51,0.00,,,0.00,WeatherCatV1.02B3,2013-03-15 06:06:00,
2013-03-15 02:11:00,28.2,12.9,29.93,SSE,155,0.0,1.0,52,0.00,,,0.00,WeatherCatV1.02B3,2013-03-15 06:11:00,
2013-03-15 02:16:00,28.1,12.8,29.93,SSE,155,2.0,7.0,52,0.00,,,0.00,WeatherCatV1.02B3,2013-03-15 06:16:00,
2013-03-15 02:21:00,28.0,12.7,29.93,SSE,155,1.0,4.0,52,0.00,,,0.00,WeatherCatV1.02B3,2013-03-15 06:21:00,
2013-03-15 02:26:00,27.9,12.6,29.93,SSE,155,0.0,4.0,52,0.00,,,0.00,WeatherCatV1.02B3,2013-03-15 06:26:00,
2013-03-15 02:31:00,27.9,12.6,29.93,SSE,155,0.0,1.0,52,0.00,,,0.00,WeatherCatV1.02B3,2013-03-15 06:31:00,
2013-03-15 02:36:00,27.9,12.6,29.93,SSE,155,2.0,4.0,52,0.00,,,0.00,WeatherCatV1.02B3,2013-03-15 06:36:00,
2013-03-15 02:41:00,28.0,12.7,29.93,SSE,155,0.0,4.0,52,0.00,,,0.00,WeatherCatV1.02B3,2013-03-15 06:41:00,
2013-03-15 02:46:00,27.9,13.0,29.93,SSE,155,0.0,1.0,53,0.00,,,0.00,WeatherCatV1.02B3,2013-03-15 06:46:00,
2013-03-15 02:51:00,27.8,12.9,29.93,SSE,155,0.0,2.0,53,0.00,,,0.00,WeatherCatV1.02B3,2013-03-15 06:51:00,
2013-03-15 02:56:00,27.8,12.9,29.93,SSE,155,0.0,1.0,53,0.00,,,0.00,WeatherCatV1.02B3,2013-03-15 06:56:00,
2013-03-15 03:01:00,27.9,13.0,29.93,SSE,155,0.0,3.0,53,0.00,,,0.00,WeatherCatV1.02B3,2013-03-15 07:01:00,
2013-03-15 03:06:00,28.0,13.1,29.93,SSE,155,0.0,3.0,53,0.00,,,0.00,WeatherCatV1.02B3,2013-03-15 07:06:00,
2013-03-15 03:11:00,28.0,13.5,29.93,SSE,155,4.0,4.0,54,0.00,,,0.00,WeatherCatV1.02B3,2013-03-15 07:11:00,
2013-03-15 03:16:00,28.0,13.1,29.93,SSE,155,3.0,7.0,53,0.00,,,0.00,WeatherCatV1.02B3,2013-03-15 07:16:00,
2013-03-15 03:21:00,28.1,13.2,29.92,SSE,155,1.0,9.0,53,0.00,,,0.00,WeatherCatV1.02B3,2013-03-15 07:21:00,
2013-03-15 03:26:00,28.1,13.6,29.92,SSE,155,2.0,4.0,54,0.00,,,0.00,WeatherCatV1.02B3,2013-03-15 07:26:00,
2013-03-15 03:31:00,28.0,13.1,29.92,SSE,155,1.0,3.0,53,0.00,,,0.00,WeatherCatV1.02B3,2013-03-15 07:31:00,
2013-03-15 03:36:00,28.0,13.1,29.92,SSE,155,1.0,11.0,53,0.00,,,0.00,WeatherCatV1.02B3,2013-03-15 07:36:00,
2013-03-15 03:41:00,28.1,13.6,29.92,SSE,155,3.0,6.0,54,0.00,,,0.00,WeatherCatV1.02B3,2013-03-15 07:41:00,
2013-03-15 03:46:00,28.1,13.6,29.92,SSE,155,0.0,4.0,54,0.00,,,0.00,WeatherCatV1.02B3,2013-03-15 07:46:00,
2013-03-15 03:51:00,28.1,13.6,29.92,SSE,155,4.0,6.0,54,0.00,,,0.00,WeatherCatV1.02B3,2013-03-15 07:51:00,
2013-03-15 03:56:00,28.2,13.7,29.92,SSE,155,1.0,16.0,54,0.00,,,0.00,WeatherCatV1.02B3,2013-03-15 07:56:00,
2013-03-15 04:01:00,28.1,13.6,29.92,SSE,155,2.0,5.0,54,0.00,,,0.00,WeatherCatV1.02B3,2013-03-15 08:01:00,
2013-03-15 04:06:00,28.0,13.9,29.92,SSE,155,0.0,4.0,55,0.00,,,0.00,WeatherCatV1.02B3,2013-03-15 08:06:00,
2013-03-15 04:11:00,27.9,13.9,29.92,SSE,155,1.0,3.0,55,0.00,,,0.00,WeatherCatV1.02B3,2013-03-15 08:11:00,
2013-03-15 04:16:00,27.8,13.8,29.92,SSE,155,2.0,4.0,55,0.00,,,0.00,WeatherCatV1.02B3,2013-03-15 08:16:00,
2013-03-15 04:21:00,27.6,13.6,29.92,SSE,155,1.0,9.0,55,0.00,,,0.00,WeatherCatV1.02B3,2013-03-15 08:21:00,
2013-03-15 04:26:00,27.6,13.6,29.92,SSE,155,2.0,3.0,55,0.00,,,0.00,WeatherCatV1.02B3,2013-03-15 08:26:00,
2013-03-15 04:31:00,27.4,13.4,29.93,SSE,155,2.0,2.0,55,0.00,,,0.00,WeatherCatV1.02B3,2013-03-15 08:31:00,
2013-03-15 04:36:00,27.3,13.7,29.93,SSE,155,0.0,7.0,56,0.00,,,0.00,WeatherCatV1.02B3,2013-03-15 08:36:00,
2013-03-15 04:41:00,27.2,13.6,29.92,SSE,155,3.0,5.0,56,0.00,,,0.00,WeatherCatV1.02B3,2013-03-15 08:41:00,
2013-03-15 04:46:00,27.1,13.5,29.93,SSE,155,0.0,2.0,56,0.00,,,0.00,WeatherCatV1.02B3,2013-03-15 08:46:00,
2013-03-15 04:51:00,26.9,13.3,29.93,SSE,155,0.0,1.0,56,0.00,,,0.00,WeatherCatV1.02B3,2013-03-15 08:51:00,
2013-03-15 04:56:00,26.7,13.5,29.93,SSE,155,0.0,2.0,57,0.00,,,0.00,WeatherCatV1.02B3,2013-03-15 08:56:00,
2013-03-15 05:01:00,26.6,13.4,29.93,SSE,155,0.0,3.0,57,0.00,,,0.00,WeatherCatV1.02B3,2013-03-15 09:01:00,
2013-03-15 05:06:00,26.6,13.4,29.93,SSE,155,0.0,4.0,57,0.00,,,0.00,WeatherCatV1.02B3,2013-03-15 09:06:00,
2013-03-15 05:11:00,26.5,13.4,29.93,SSE,155,3.0,5.0,57,0.00,,,0.00,WeatherCatV1.02B3,2013-03-15 09:11:00,
2013-03-15 05:16:00,26.6,13.4,29.93,SSE,155,3.0,4.0,57,0.00,,,0.00,WeatherCatV1.02B3,2013-03-15 09:16:00,
2013-03-15 05:21:00,26.6,13.0,29.93,SSE,153,3.0,7.0,56,0.00,,,0.00,WeatherCatV1.02B3,2013-03-15 09:21:00,
2013-03-15 05:26:00,26.5,13.0,29.94,SSE,153,2.0,3.0,56,0.00,,,0.00,WeatherCatV1.02B3,2013-03-15 09:26:00,
2013-03-15 05:31:00,26.4,13.3,29.94,SSE,155,0.0,4.0,57,0.00,,,0.00,WeatherCatV1.02B3,2013-03-15 09:31:00,
2013-03-15 05:36:00,26.3,13.2,29.94,SSE,155,0.0,2.0,57,0.00,,,0.00,WeatherCatV1.02B3,2013-03-15 09:36:00,
2013-03-15 05:41:00,26.3,12.8,29.94,SSE,155,1.0,9.0,56,0.00,,,0.00,WeatherCatV1.02B3,2013-03-15 09:41:00,
2013-03-15 05:46:00,26.2,13.1,29.94,SSE,155,2.0,6.0,57,0.00,,,0.00,WeatherCatV1.02B3,2013-03-15 09:46:00,
2013-03-15 05:51:00,26.1,13.0,29.94,SSE,155,0.0,3.0,57,0.00,,,0.00,WeatherCatV1.02B3,2013-03-15 09:51:00,
2013-03-15 05:56:00,26.0,13.3,29.94,SSE,155,2.0,2.0,58,0.00,,,0.00,WeatherCatV1.02B3,2013-03-15 09:56:00,
2013-03-15 06:01:00,26.0,13.3,29.94,SSE,155,0.0,12.0,58,0.00,,,0.00,WeatherCatV1.02B3,2013-03-15 10:01:00,
2013-03-15 06:06:00,26.0,12.9,29.94,SSE,155,1.0,11.0,57,0.00,,,0.00,WeatherCatV1.02B3,2013-03-15 10:06:00,
2013-03-15 06:11:00,26.0,12.9,29.95,SSE,155,2.0,8.0,57,0.00,,,0.00,WeatherCatV1.02B3,2013-03-15 10:11:00,
2013-03-15 06:16:00,25.9,12.8,29.95,SSE,155,2.0,3.0,57,0.00,,,0.00,WeatherCatV1.02B3,2013-03-15 10:16:00,
2013-03-15 06:21:00,25.9,12.8,29.95,SSE,155,0.0,6.0,57,0.00,,,0.00,WeatherCatV1.02B3,2013-03-15 10:21:00,
2013-03-15 06:26:00,25.8,12.7,29.95,SSE,155,2.0,6.0,57,0.00,,,0.00,WeatherCatV1.02B3,2013-03-15 10:26:00,
2013-03-15 06:31:00,25.8,12.7,29.95,SSE,155,0.0,5.0,57,0.00,,,0.00,WeatherCatV1.02B3,2013-03-15 10:31:00,
2013-03-15 06:36:00,25.7,12.6,29.96,SSE,155,2.0,7.0,57,0.00,,,0.00,WeatherCatV1.02B3,2013-03-15 10:36:00,
2013-03-15 06:41:00,25.7,12.6,29.96,SSE,155,0.0,1.0,57,0.00,,,0.00,WeatherCatV1.02B3,2013-03-15 10:41:00,
2013-03-15 06:46:00,25.7,12.6,29.96,SSE,155,2.0,3.0,57,0.00,,,0.00,WeatherCatV1.02B3,2013-03-15 10:46:00,
2013-03-15 06:51:00,25.6,12.5,29.96,SSE,155,0.0,3.0,57,0.00,,,0.00,WeatherCatV1.02B3,2013-03-15 10:51:00,
2013-03-15 06:56:00,25.6,12.5,29.96,SSE,155,2.0,5.0,57,0.00,,,0.00,WeatherCatV1.02B3,2013-03-15 10:56:00,
2013-03-15 07:01:00,25.7,12.2,29.96,SSE,155,0.0,4.0,56,0.00,,,0.00,WeatherCatV1.02B3,2013-03-15 11:01:00,
2013-03-15 07:06:00,25.7,12.2,29.96,SSE,155,1.0,3.0,56,0.00,,,0.00,WeatherCatV1.02B3,2013-03-15 11:06:00,
2013-03-15 07:11:00,25.7,12.2,29.96,SSE,155,4.0,6.0,56,0.00,,,0.00,WeatherCatV1.02B3,2013-03-15 11:11:00,
2013-03-15 07:16:00,25.7,12.2,29.96,SSE,155,1.0,3.0,56,0.00,,,0.00,WeatherCatV1.02B3,2013-03-15 11:16:00,
2013-03-15 07:21:00,25.6,12.1,29.96,SSE,155,0.0,2.0,56,0.00,,,0.00,WeatherCatV1.02B3,2013-03-15 11:21:00,
2013-03-15 07:26:00,25.6,12.1,29.96,SSE,155,0.0,3.0,56,0.00,,,0.00,WeatherCatV1.02B3,2013-03-15 11:26:00,
2013-03-15 07:31:00,25.6,11.7,29.96,SSE,155,0.0,3.0,55,0.00,,,0.00,WeatherCatV1.02B3,2013-03-15 11:31:00,
2013-03-15 07:36:00,25.6,11.7,29.97,SSE,155,0.0,2.0,55,0.00,,,0.00,WeatherCatV1.02B3,2013-03-15 11:36:00,
2013-03-15 07:41:00,25.7,11.4,29.97,SSE,155,0.0,1.0,54,0.00,,,0.00,WeatherCatV1.02B3,2013-03-15 11:41:00,
2013-03-15 07:46:00,25.9,12.0,29.97,SSE,155,0.0,3.0,55,0.00,,,0.00,WeatherCatV1.02B3,2013-03-15 11:46:00,
2013-03-15 07:51:00,26.1,12.6,29.97,SSE,155,0.0,0.0,56,0.00,,,0.00,WeatherCatV1.02B3,2013-03-15 11:51:00,
2013-03-15 07:56:00,26.3,12.4,29.97,SSE,155,1.0,1.0,55,0.00,,,0.00,WeatherCatV1.02B3,2013-03-15 11:56:00,
2013-03-15 08:01:00,26.4,12.5,29.96,SSE,155,0.0,1.0,55,0.00,,,0.00,WeatherCatV1.02B3,2013-03-15 12:01:00,
2013-03-15 08:06:00,26.5,12.5,29.96,SSE,155,1.0,3.0,55,0.00,,,0.00,WeatherCatV1.02B3,2013-03-15 12:06:00,
2013-03-15 08:11:00,26.6,12.2,29.96,SSE,155,0.0,1.0,54,0.00,,,0.00,WeatherCatV1.02B3,2013-03-15 12:11:00,
2013-03-15 08:16:00,26.7,12.7,29.96,SSE,155,0.0,0.0,55,0.00,,,0.00,WeatherCatV1.02B3,2013-03-15 12:16:00,
2013-03-15 08:21:00,26.7,12.7,29.96,SSE,155,0.0,3.0,55,0.00,,,0.00,WeatherCatV1.02B3,2013-03-15 12:21:00,
2013-03-15 08:26:00,26.7,13.1,29.97,SSE,155,0.0,2.0,56,0.00,,,0.00,WeatherCatV1.02B3,2013-03-15 12:26:00,
2013-03-15 08:31:00,26.8,13.2,29.96,SSE,155,0.0,3.0,56,0.00,,,0.00,WeatherCatV1.02B3,2013-03-15 12:31:00,
2013-03-15 08:36:00,26.9,13.3,29.97,SSE,155,0.0,0.0,56,0.00,,,0.00,WeatherCatV1.02B3,2013-03-15 12:36:00,
2013-03-15 08:41:00,27.0,13.0,29.97,SSE,155,0.0,1.0,55,0.00,,,0.00,WeatherCatV1.02B3,2013-03-15 12:41:00,
2013-03-15 08:46:00,27.3,13.3,29.97,SSE,155,0.0,1.0,55,0.00,,,0.00,WeatherCatV1.02B3,2013-03-15 12:46:00,
2013-03-15 08:51:00,27.5,13.1,29.97,SSE,155,0.0,3.0,54,0.00,,,0.00,WeatherCatV1.02B3,2013-03-15 12:51:00,
2013-03-15 08:56:00,27.8,13.8,29.97,SSE,155,0.0,3.0,55,0.00,,,0.00,WeatherCatV1.02B3,2013-03-15 12:56:00,
2013-03-15 09:01:00,27.8,13.3,29.97,SSE,155,1.0,1.0,54,0.00,,,0.00,WeatherCatV1.02B3,2013-03-15 13:01:00,
2013-03-15 09:06:00,28.1,14.4,29.97,SSE,155,0.0,1.0,56,0.00,,,0.00,WeatherCatV1.02B3,2013-03-15 13:06:00,
2013-03-15 09:11:00,28.7,14.2,29.96,SSE,155,0.0,1.0,54,0.00,,,0.00,WeatherCatV1.02B3,2013-03-15 13:11:00,
2013-03-15 09:16:00,29.7,15.1,29.96,SSE,155,2.0,2.0,54,0.00,,,0.00,WeatherCatV1.02B3,2013-03-15 13:16:00,
2013-03-15 09:21:00,29.7,14.3,29.96,SSE,155,1.0,4.0,52,0.00,,,0.00,WeatherCatV1.02B3,2013-03-15 13:21:00,
2013-03-15 09:26:00,29.6,13.7,29.96,SSE,155,0.0,2.0,51,0.00,,,0.00,WeatherCatV1.02B3,2013-03-15 13:26:00,
2013-03-15 09:31:00,30.0,15.0,29.96,SSE,155,0.0,4.0,53,0.00,,,0.00,WeatherCatV1.02B3,2013-03-15 13:31:00,
2013-03-15 09:36:00,30.5,14.6,29.96,SSE,154,5.0,5.0,51,0.00,,,0.00,WeatherCatV1.02B3,2013-03-15 13:36:00,
2013-03-15 09:41:00,31.1,15.6,29.96,SSE,155,4.0,4.0,52,0.00,,,0.00,WeatherCatV1.02B3,2013-03-15 13:41:00,
2013-03-15 09:46:00,31.1,14.7,29.96,SSE,155,3.0,3.0,50,0.00,,,0.00,WeatherCatV1.02B3,2013-03-15 13:46:00,
2013-03-15 09:51:00,31.1,15.1,29.96,SSE,155,6.0,6.0,51,0.00,,,0.00,WeatherCatV1.02B3,2013-03-15 13:51:00,
2013-03-15 09:56:00,31.1,14.7,29.96,SSE,155,1.0,3.0,50,0.00,,,0.00,WeatherCatV1.02B3,2013-03-15 13:56:00,
2013-03-15 10:01:00,31.3,14.8,29.96,SSE,155,2.0,2.0,50,0.00,,,0.00,WeatherCatV1.02B3,2013-03-15 14:01:00,
2013-03-15 10:06:00,32.0,15.5,29.96,SSE,155,0.0,2.0,50,0.00,,,0.00,WeatherCatV1.02B3,2013-03-15 14:06:00,
2013-03-15 10:11:00,32.2,14.7,29.96,SSE,155,2.0,5.0,48,0.00,,,0.00,WeatherCatV1.02B3,2013-03-15 14:11:00,
2013-03-15 10:16:00,32.1,15.6,29.95,SSE,155,2.0,7.0,50,0.00,,,0.00,WeatherCatV1.02B3,2013-03-15 14:16:00,
2013-03-15 10:21:00,32.4,14.9,29.95,SSE,155,3.0,10.0,48,0.00,,,0.00,WeatherCatV1.02B3,2013-03-15 14:21:00,
2013-03-15 10:26:00,32.7,15.7,29.95,SSE,155,3.0,5.0,49,0.00,,,0.00,WeatherCatV1.02B3,2013-03-15 14:26:00,
2013-03-15 10:31:00,32.6,15.6,29.95,SSE,155,1.0,3.0,49,0.00,,,0.00,WeatherCatV1.02B3,2013-03-15 14:31:00,
2013-03-15 10:36:00,32.5,15.0,29.95,SSE,155,3.0,6.0,48,0.00,,,0.00,WeatherCatV1.02B3,2013-03-15 14:36:00,
2013-03-15 10:41:00,32.8,14.8,29.94,SSE,155,2.0,4.0,47,0.00,,,0.00,WeatherCatV1.02B3,2013-03-15 14:41:00,
2013-03-15 10:46:00,33.1,15.1,29.94,SSE,155,5.0,7.0,47,0.00,,,0.00,WeatherCatV1.02B3,2013-03-15 14:46:00,
2013-03-15 10:51:00,32.9,14.9,29.94,SSE,155,1.0,5.0,47,0.00,,,0.00,WeatherCatV1.02B3,2013-03-15 14:51:00,
2013-03-15 10:56:00,32.6,15.1,29.94,SSE,155,5.0,7.0,48,0.00,,,0.00,WeatherCatV1.02B3,2013-03-15 14:56:00,
2013-03-15 11:01:00,32.3,14.8,29.94,SSE,155,0.0,3.0,48,0.00,,,0.00,WeatherCatV1.02B3,2013-03-15 15:01:00,
2013-03-15 11:06:00,32.3,15.8,29.94,SSE,155,2.0,3.0,50,0.00,,,0.00,WeatherCatV1.02B3,2013-03-15 15:06:00,
2013-03-15 11:11:00,32.4,14.9,29.93,SSE,155,2.0,6.0,48,0.00,,,0.00,WeatherCatV1.02B3,2013-03-15 15:11:00,
2013-03-15 11:16:00,32.3,14.8,29.93,SSE,155,2.0,3.0,48,0.00,,,0.00,WeatherCatV1.02B3,2013-03-15 15:16:00,
2013-03-15 11:21:00,32.1,15.1,29.93,SSE,155,0.0,2.0,49,0.00,,,0.00,WeatherCatV1.02B3,2013-03-15 15:21:00,
2013-03-15 11:26:00,32.4,14.9,29.92,SSE,155,4.0,5.0,48,0.00,,,0.00,WeatherCatV1.02B3,2013-03-15 15:26:00,
2013-03-15 11:31:00,33.2,15.2,29.92,SSE,155,5.0,7.0,47,0.00,,,0.00,WeatherCatV1.02B3,2013-03-15 15:31:00,
2013-03-15 11:36:00,33.8,15.7,29.92,SSE,155,2.0,5.0,47,0.00,,,0.00,WeatherCatV1.02B3,2013-03-15 15:36:00,
2013-03-15 11:41:00,34.7,17.0,29.91,SSE,155,9.0,9.0,48,0.00,,,0.00,WeatherCatV1.02B3,2013-03-15 15:41:00,
2013-03-15 11:46:00,35.2,18.0,29.91,SSE,155,8.0,13.0,49,0.00,,,0.00,WeatherCatV1.02B3,2013-03-15 15:46:00,
2013-03-15 11:51:00,35.5,18.3,29.90,SSE,156,5.0,6.0,49,0.00,,,0.00,WeatherCatV1.02B3,2013-03-15 15:51:00,
2013-03-15 11:56:00,36.3,20.4,29.90,SSE,156,1.0,8.0,52,0.00,,,0.00,WeatherCatV1.02B3,2013-03-15 15:56:00,
2013-03-15 12:01:00,36.5,18.2,29.90,SSE,155,2.0,11.0,47,0.00,,,0.00,WeatherCatV1.02B3,2013-03-15 16:01:00,
2013-03-15 12:06:00,35.9,18.1,29.90,SSE,155,2.0,7.0,48,0.00,,,0.00,WeatherCatV1.02B3,2013-03-15 16:06:00,
2013-03-15 12:11:00,36.3,20.4,29.89,SSE,155,1.0,5.0,52,0.00,,,0.00,WeatherCatV1.02B3,2013-03-15 16:11:00,
2013-03-15 12:16:00,37.0,19.2,29.89,SSE,156,7.0,13.0,48,0.00,,,0.00,WeatherCatV1.02B3,2013-03-15 16:16:00,
2013-03-15 12:21:00,36.8,20.4,29.89,SSE,157,8.0,14.0,51,0.00,,,0.00,WeatherCatV1.02B3,2013-03-15 16:21:00,
2013-03-15 12:26:00,36.4,19.1,29.89,SSE,157,8.0,10.0,49,0.00,,,0.00,WeatherCatV1.02B3,2013-03-15 16:26:00,
2013-03-15 12:31:00,36.8,20.4,29.88,SSE,157,7.0,10.0,51,0.00,,,0.00,WeatherCatV1.02B3,2013-03-15 16:31:00,
2013-03-15 12:36:00,37.3,18.9,29.88,SSE,156,2.0,9.0,47,0.00,,,0.00,WeatherCatV1.02B3,2013-03-15 16:36:00,
2013-03-15 12:41:00,36.6,19.7,29.88,SSE,157,3.0,12.0,50,0.00,,,0.00,WeatherCatV1.02B3,2013-03-15 16:41:00,
2013-03-15 12:46:00,36.9,20.5,29.87,SSE,155,6.0,9.0,51,0.00,,,0.00,WeatherCatV1.02B3,2013-03-15 16:46:00,
2013-03-15 12:51:00,36.6,19.7,29.86,SSE,157,5.0,8.0,50,0.00,,,0.00,WeatherCatV1.02B3,2013-03-15 16:51:00,
2013-03-15 12:56:00,36.3,18.5,29.86,SSE,156,4.0,12.0,48,0.00,,,0.00,WeatherCatV1.02B3,2013-03-15 16:56:00,
2013-03-15 13:01:00,36.4,19.1,29.86,SSE,156,2.0,9.0,49,0.00,,,0.00,WeatherCatV1.02B3,2013-03-15 17:01:00,
2013-03-15 13:06:00,36.8,19.5,29.85,SSE,156,5.0,10.0,49,0.00,,,0.00,WeatherCatV1.02B3,2013-03-15 17:06:00,
2013-03-15 13:11:00,37.1,20.7,29.85,SSE,157,9.0,9.0,51,0.00,,,0.00,WeatherCatV1.02B3,2013-03-15 17:11:00,
2013-03-15 13:16:00,37.7,20.8,29.85,SSE,155,9.0,10.0,50,0.00,,,0.00,WeatherCatV1.02B3,2013-03-15 17:16:00,
2013-03-15 13:21:00,38.0,20.1,29.84,SSE,155,5.0,8.0,48,0.00,,,0.00,WeatherCatV1.02B3,2013-03-15 17:21:00,
2013-03-15 13:26:00,38.1,20.6,29.84,SSE,155,3.0,4.0,49,0.00,,,0.00,WeatherCatV1.02B3,2013-03-15 17:26:00,
2013-03-15 13:31:00,38.3,20.8,29.84,SSE,156,3.0,6.0,49,0.00,,,0.00,WeatherCatV1.02B3,2013-03-15 17:31:00,
2013-03-15 13:36:00,37.3,19.4,29.84,SSE,155,9.0,14.0,48,0.00,,,0.00,WeatherCatV1.02B3,2013-03-15 17:36:00,
2013-03-15 13:41:00,36.4,20.9,29.84,SSE,155,7.0,8.0,53,0.00,,,0.00,WeatherCatV1.02B3,2013-03-15 17:41:00,
2013-03-15 13:46:00,37.5,23.7,29.84,SSE,155,2.0,8.0,57,0.00,,,0.00,WeatherCatV1.02B3,2013-03-15 17:46:00,
2013-03-15 13:51:00,37.9,21.4,29.84,SSE,155,8.0,9.0,51,0.00,,,0.00,WeatherCatV1.02B3,2013-03-15 17:51:00,
2013-03-15 13:56:00,37.9,21.4,29.83,SSE,155,4.0,6.0,51,0.00,,,0.00,WeatherCatV1.02B3,2013-03-15 17:56:00,
2013-03-15 14:01:00,38.2,21.2,29.82,SSE,155,5.0,9.0,50,0.00,,,0.00,WeatherCatV1.02B3,2013-03-15 18:01:00,
2013-03-15 14:06:00,39.3,19.8,29.82,SSE,155,4.0,7.0,45,0.00,,,0.00,WeatherCatV1.02B3,2013-03-15 18:06:00,
2013-03-15 14:11:00,40.0,20.4,29.82,SSE,155,2.0,7.0,45,0.00,,,0.00,WeatherCatV1.02B3,2013-03-15 18:11:00,
2013-03-15 14:16:00,40.6,20.4,29.82,SSE,154,9.0,9.0,44,0.00,,,0.00,WeatherCatV1.02B3,2013-03-15 18:16:00,
2013-03-15 14:21:00,40.4,20.2,29.81,SSE,153,0.0,6.0,44,0.00,,,0.00,WeatherCatV1.02B3,2013-03-15 18:21:00,
2013-03-15 14:26:00,40.7,20.0,29.81,SSE,154,2.0,7.0,43,0.00,,,0.00,WeatherCatV1.02B3,2013-03-15 18:26:00,
2013-03-15 14:31:00,40.9,18.5,29.80,SSE,155,8.0,14.0,40,0.00,,,0.00,WeatherCatV1.02B3,2013-03-15 18:31:00,
2013-03-15 14:36:00,40.1,18.9,29.80,SSE,155,3.0,7.0,42,0.00,,,0.00,WeatherCatV1.02B3,2013-03-15 18:36:00,
2013-03-15 14:41:00,40.1,20.5,29.80,SSE,155,12.0,18.0,45,0.00,,,0.00,WeatherCatV1.02B3,2013-03-15 18:41:00,
2013-03-15 14:46:00,40.3,19.6,29.79,SSE,156,3.0,15.0,43,0.00,,,0.00,WeatherCatV1.02B3,2013-03-15 18:46:00,
2013-03-15 14:51:00,40.2,20.0,29.79,SSE,155,6.0,8.0,44,0.00,,,0.00,WeatherCatV1.02B3,2013-03-15 18:51:00,
2013-03-15 14:56:00,40.8,21.1,29.79,SSE,155,5.0,11.0,45,0.00,,,0.00,WeatherCatV1.02B3,2013-03-15 18:56:00,
2013-03-15 15:01:00,40.8,21.1,29.79,SSE,156,3.0,15.0,45,0.00,,,0.00,WeatherCatV1.02B3,2013-03-15 19:01:00,
2013-03-15 15:06:00,40.6,20.9,29.78,SSE,155,7.0,10.0,45,0.00,,,0.00,WeatherCatV1.02B3,2013-03-15 19:06:00,
2013-03-15 15:11:00,40.7,21.0,29.78,SSE,156,4.0,20.0,45,0.00,,,0.00,WeatherCatV1.02B3,2013-03-15 19:11:00,
2013-03-15 15:16:00,40.5,21.4,29.78,SSE,157,6.0,11.0,46,0.00,,,0.00,WeatherCatV1.02B3,2013-03-15 19:16:00,
2013-03-15 15:21:00,40.6,22.5,29.78,SSE,156,8.0,10.0,48,0.00,,,0.00,WeatherCatV1.02B3,2013-03-15 19:21:00,
2013-03-15 15:26:00,40.5,22.4,29.78,SSE,157,5.0,24.0,48,0.00,,,0.00,WeatherCatV1.02B3,2013-03-15 19:26:00,
2013-03-15 15:31:00,40.6,22.0,29.77,SSE,156,2.0,10.0,47,0.00,,,0.00,WeatherCatV1.02B3,2013-03-15 19:31:00,
2013-03-15 15:36:00,40.7,22.6,29.77,SSE,156,11.0,16.0,48,0.00,,,0.00,WeatherCatV1.02B3,2013-03-15 19:36:00,
2013-03-15 15:41:00,40.5,22.4,29.76,SSE,155,4.0,16.0,48,0.00,,,0.00,WeatherCatV1.02B3,2013-03-15 19:41:00,
2013-03-15 15:46:00,40.4,23.2,29.76,SSE,153,4.0,16.0,50,0.00,,,0.00,WeatherCatV1.02B3,2013-03-15 19:46:00,
2013-03-15 15:51:00,40.1,23.4,29.76,SSE,156,8.0,11.0,51,0.00,,,0.00,WeatherCatV1.02B3,2013-03-15 19:51:00,
2013-03-15 15:56:00,40.0,23.3,29.76,SSE,156,6.0,16.0,51,0.00,,,0.00,WeatherCatV1.02B3,2013-03-15 19:56:00,
2013-03-15 16:01:00,39.9,24.6,29.76,SSE,156,7.0,18.0,54,0.00,,,0.00,WeatherCatV1.02B3,2013-03-15 20:01:00,
2013-03-15 16:06:00,39.6,23.9,29.76,SSE,157,9.0,14.0,53,0.00,,,0.00,WeatherCatV1.02B3,2013-03-15 20:06:00,
2013-03-15 16:11:00,39.5,24.7,29.76,SSE,155,4.0,15.0,55,0.00,,,0.00,WeatherCatV1.02B3,2013-03-15 20:11:00,
2013-03-15 16:16:00,39.2,24.8,29.76,SSE,155,2.0,4.0,56,0.00,,,0.00,WeatherCatV1.02B3,2013-03-15 20:16:00,
2013-03-15 16:21:00,39.2,25.3,29.76,SSE,155,3.0,10.0,57,0.00,,,0.00,WeatherCatV1.02B3,2013-03-15 20:21:00,
2013-03-15 16:26:00,39.1,25.2,29.76,SSE,155,3.0,12.0,57,0.00,,,0.00,WeatherCatV1.02B3,2013-03-15 20:26:00,
2013-03-15 16:31:00,39.3,25.8,29.76,SSE,157,3.0,9.0,58,0.00,,,0.00,WeatherCatV1.02B3,2013-03-15 20:31:00,
2013-03-15 16:36:00,39.3,25.8,29.76,SSE,155,5.0,7.0,58,0.00,,,0.00,WeatherCatV1.02B3,2013-03-15 20:36:00,
2013-03-15 16:41:00,39.2,26.1,29.76,SSE,155,7.0,7.0,59,0.00,,,0.00,WeatherCatV1.02B3,2013-03-15 20:41:00,
2013-03-15 16:46:00,39.2,25.7,29.75,SSE,155,3.0,9.0,58,0.00,,,0.00,WeatherCatV1.02B3,2013-03-15 20:46:00,
2013-03-15 16:51:00,39.0,26.3,29.75,SSE,155,6.0,15.0,60,0.00,,,0.00,WeatherCatV1.02B3,2013-03-15 20:51:00,
2013-03-15 16:56:00,38.8,26.1,29.75,SSE,155,6.0,9.0,60,0.00,,,0.00,WeatherCatV1.02B3,2013-03-15 20:56:00,
2013-03-15 17:01:00,38.6,25.9,29.75,SSE,153,1.0,13.0,60,0.00,,,0.00,WeatherCatV1.02B3,2013-03-15 21:01:00,
2013-03-15 17:06:00,38.5,26.2,29.75,SSE,153,2.0,5.0,61,0.00,,,0.00,WeatherCatV1.02B3,2013-03-15 21:06:00,
2013-03-15 17:11:00,38.4,26.5,29.75,SSE,153,2.0,8.0,62,0.00,,,0.00,WeatherCatV1.02B3,2013-03-15 21:11:00,
2013-03-15 17:16:00,38.4,26.5,29.75,SSE,153,7.0,8.0,62,0.00,,,0.00,WeatherCatV1.02B3,2013-03-15 21:16:00,
2013-03-15 17:21:00,38.4,26.9,29.75,SSE,155,8.0,11.0,63,0.00,,,0.00,WeatherCatV1.02B3,2013-03-15 21:21:00,
2013-03-15 17:26:00,38.4,26.9,29.75,SSE,155,2.0,17.0,63,0.00,,,0.00,WeatherCatV1.02B3,2013-03-15 21:26:00,
2013-03-15 17:31:00,38.4,27.3,29.75,SSE,155,5.0,9.0,64,0.00,,,0.00,WeatherCatV1.02B3,2013-03-15 21:31:00,
2013-03-15 17:36:00,38.6,27.5,29.75,SSE,155,2.0,5.0,64,0.00,,,0.00,WeatherCatV1.02B3,2013-03-15 21:36:00,
2013-03-15 17:41:00,38.7,27.6,29.75,SSE,155,1.0,4.0,64,0.00,,,0.00,WeatherCatV1.02B3,2013-03-15 21:41:00,
2013-03-15 17:46:00,38.8,28.1,29.75,SSE,155,3.0,6.0,65,0.00,,,0.00,WeatherCatV1.02B3,2013-03-15 21:46:00,
2013-03-15 17:51:00,39.0,27.9,29.75,SSE,155,1.0,4.0,64,0.00,,,0.00,WeatherCatV1.02B3,2013-03-15 21:51:00,
2013-03-15 17:56:00,39.0,27.9,29.75,SSE,155,2.0,3.0,64,0.00,,,0.00,WeatherCatV1.02B3,2013-03-15 21:56:00,
2013-03-15 18:01:00,39.1,27.6,29.75,SSE,156,3.0,4.0,63,0.00,,,0.00,WeatherCatV1.02B3,2013-03-15 22:01:00,
2013-03-15 18:06:00,39.1,27.6,29.74,SSE,156,2.0,3.0,63,0.00,,,0.00,WeatherCatV1.02B3,2013-03-15 22:06:00,
2013-03-15 18:11:00,39.1,27.6,29.75,SSE,156,1.0,2.0,63,0.00,,,0.00,WeatherCatV1.02B3,2013-03-15 22:11:00,
2013-03-15 18:16:00,39.1,27.6,29.74,SSE,156,0.0,0.0,63,0.00,,,0.00,WeatherCatV1.02B3,2013-03-15 22:16:00,
2013-03-15 18:21:00,39.0,27.5,29.74,SSE,156,1.0,4.0,63,0.00,,,0.00,WeatherCatV1.02B3,2013-03-15 22:21:00,
2013-03-15 18:26:00,39.1,27.2,29.74,SSE,156,0.0,5.0,62,0.00,,,0.00,WeatherCatV1.02B3,2013-03-15 22:26:00,
2013-03-15 18:31:00,39.2,26.9,29.75,SSE,156,3.0,3.0,61,0.00,,,0.00,WeatherCatV1.02B3,2013-03-15 22:31:00,
2013-03-15 18:36:00,39.2,26.9,29.75,SSE,156,1.0,3.0,61,0.00,,,0.00,WeatherCatV1.02B3,2013-03-15 22:36:00,
2013-03-15 18:41:00,39.3,27.0,29.75,SSE,156,2.0,5.0,61,0.00,,,0.00,WeatherCatV1.02B3,2013-03-15 22:41:00,
2013-03-15 18:46:00,39.3,27.0,29.75,SSE,156,1.0,5.0,61,0.00,,,0.00,WeatherCatV1.02B3,2013-03-15 22:46:00,
2013-03-15 18:51:00,39.3,27.0,29.75,SSE,157,0.0,1.0,61,0.00,,,0.00,WeatherCatV1.02B3,2013-03-15 22:51:00,
2013-03-15 18:56:00,39.3,27.0,29.75,SSE,156,0.0,4.0,61,0.00,,,0.00,WeatherCatV1.02B3,2013-03-15 22:56:00,
2013-03-15 19:01:00,39.3,27.0,29.75,SSE,156,1.0,2.0,61,0.00,,,0.00,WeatherCatV1.02B3,2013-03-15 23:01:00,
2013-03-15 19:06:00,39.3,27.0,29.75,SSE,156,0.0,3.0,61,0.00,,,0.00,WeatherCatV1.02B3,2013-03-15 23:06:00,
2013-03-15 19:11:00,39.3,27.0,29.75,SSE,156,1.0,4.0,61,0.00,,,0.00,WeatherCatV1.02B3,2013-03-15 23:11:00,
2013-03-15 19:16:00,39.3,27.0,29.75,SSE,156,0.0,0.0,61,0.00,,,0.00,WeatherCatV1.02B3,2013-03-15 23:16:00,
2013-03-15 19:21:00,39.3,27.0,29.75,SSE,157,0.0,1.0,61,0.00,,,0.00,WeatherCatV1.02B3,2013-03-15 23:21:00,
2013-03-15 19:26:00,39.3,27.4,29.75,SSE,156,1.0,3.0,62,0.00,,,0.00,WeatherCatV1.02B3,2013-03-15 23:26:00,
2013-03-15 19:31:00,39.3,27.4,29.75,SSE,156,0.0,3.0,62,0.00,,,0.00,WeatherCatV1.02B3,2013-03-15 23:31:00,
2013-03-15 19:36:00,39.3,27.8,29.76,SSE,156,0.0,1.0,63,0.00,,,0.00,WeatherCatV1.02B3,2013-03-15 23:36:00,
2013-03-15 19:41:00,39.3,27.8,29.76,SSE,156,1.0,3.0,63,0.00,,,0.00,WeatherCatV1.02B3,2013-03-15 23:41:00,
2013-03-15 19:46:00,39.4,28.2,29.76,SSE,156,7.0,7.0,64,0.00,,,0.00,WeatherCatV1.02B3,2013-03-15 23:46:00,
2013-03-15 19:51:00,39.3,28.5,29.76,SSE,157,3.0,3.0,65,0.00,,,0.00,WeatherCatV1.02B3,2013-03-15 23:51:00,
2013-03-15 19:56:00,39.3,28.9,29.76,SSE,156,1.0,3.0,66,0.00,,,0.00,WeatherCatV1.02B3,2013-03-15 23:56:00,
2013-03-15 20:01:00,39.3,29.3,29.76,SSE,156,2.0,5.0,67,0.00,,,0.00,WeatherCatV1.02B3,2013-03-16 00:01:00,
2013-03-15 20:06:00,39.2,29.5,29.76,SSE,156,1.0,3.0,68,0.00,,,0.00,WeatherCatV1.02B3,2013-03-16 00:06:00,
2013-03-15 20:11:00,39.1,29.4,29.76,SSE,156,0.0,2.0,68,0.00,,,0.00,WeatherCatV1.02B3,2013-03-16 00:11:00,
2013-03-15 20:16:00,39.0,29.7,29.76,SSE,156,4.0,7.0,69,0.00,,,0.00,WeatherCatV1.02B3,2013-03-16 00:16:00,
2013-03-15 20:21:00,39.0,29.7,29.76,SSE,157,0.0,5.0,69,0.00,,,0.00,WeatherCatV1.02B3,2013-03-16 00:21:00,
2013-03-15 20:26:00,38.9,30.0,29.76,SSE,156,2.0,7.0,70,0.00,,,0.00,WeatherCatV1.02B3,2013-03-16 00:26:00,
2013-03-15 20:31:00,38.8,30.2,29.76,SSE,156,0.0,2.0,71,0.00,,,0.00,WeatherCatV1.02B3,2013-03-16 00:31:00,
2013-03-15 20:36:00,38.6,30.0,29.76,SSE,156,0.0,2.0,71,0.00,,,0.00,WeatherCatV1.02B3,2013-03-16 00:36:00,
2013-03-15 20:41:00,38.3,30.1,29.76,SSE,156,0.0,4.0,72,0.00,,,0.00,WeatherCatV1.02B3,2013-03-16 00:41:00,
2013-03-15 20:46:00,38.1,30.2,29.76,SSE,156,2.0,3.0,73,0.00,,,0.00,WeatherCatV1.02B3,2013-03-16 00:46:00,
2013-03-15 20:51:00,38.1,30.2,29.76,SSE,156,0.0,5.0,73,0.00,,,0.00,WeatherCatV1.02B3,2013-03-16 00:51:00,
2013-03-15 20:56:00,38.0,30.1,29.76,SSE,156,5.0,5.0,73,0.00,,,0.00,WeatherCatV1.02B3,2013-03-16 00:56:00,
2013-03-15 21:01:00,37.9,30.4,29.76,SSE,156,3.0,5.0,74,0.00,,,0.00,WeatherCatV1.02B3,2013-03-16 01:01:00,
2013-03-15 21:06:00,37.8,30.3,29.76,SSE,156,0.0,1.0,74,0.00,,,0.00,WeatherCatV1.02B3,2013-03-16 01:06:00,
2013-03-15 21:11:00,37.7,30.2,29.76,SSE,156,1.0,2.0,74,0.00,,,0.00,WeatherCatV1.02B3,2013-03-16 01:11:00,
2013-03-15 21:16:00,37.5,30.3,29.76,SSE,156,2.0,6.0,75,0.00,,,0.00,WeatherCatV1.02B3,2013-03-16 01:16:00,
2013-03-15 21:21:00,37.4,30.2,29.76,SSE,156,1.0,2.0,75,0.00,,,0.00,WeatherCatV1.02B3,2013-03-16 01:21:00,
2013-03-15 21:26:00,37.3,30.1,29.76,SSE,156,1.0,2.0,75,0.00,,,0.00,WeatherCatV1.02B3,2013-03-16 01:26:00,
2013-03-15 21:31:00,37.2,30.0,29.76,SSE,156,0.0,2.0,75,0.00,,,0.00,WeatherCatV1.02B3,2013-03-16 01:31:00,
2013-03-15 21:36:00,37.1,29.9,29.76,SSE,157,0.0,2.0,75,0.00,,,0.00,WeatherCatV1.02B3,2013-03-16 01:36:00,
2013-03-15 21:41:00,37.1,29.9,29.76,SSE,156,0.0,3.0,75,0.00,,,0.00,WeatherCatV1.02B3,2013-03-16 01:41:00,
2013-03-15 21:46:00,37.2,30.0,29.76,SSE,156,0.0,2.0,75,0.00,,,0.00,WeatherCatV1.02B3,2013-03-16 01:46:00,
2013-03-15 21:51:00,37.0,29.8,29.77,SSE,157,0.0,2.0,75,0.00,,,0.00,WeatherCatV1.02B3,2013-03-16 01:51:00,
2013-03-15 21:56:00,37.0,29.5,29.77,SSE,156,0.0,2.0,74,0.00,,,0.00,WeatherCatV1.02B3,2013-03-16 01:56:00,
2013-03-15 22:01:00,37.1,29.6,29.77,SSE,156,0.0,4.0,74,0.00,,,0.00,WeatherCatV1.02B3,2013-03-16 02:01:00,
2013-03-15 22:06:00,37.0,29.5,29.77,SSE,156,0.0,2.0,74,0.00,,,0.00,WeatherCatV1.02B3,2013-03-16 02:06:00,
2013-03-15 22:11:00,36.8,29.3,29.77,SSE,156,0.0,3.0,74,0.00,,,0.00,WeatherCatV1.02B3,2013-03-16 02:11:00,
2013-03-15 22:16:00,36.8,29.3,29.77,SSE,156,0.0,2.0,74,0.00,,,0.00,WeatherCatV1.02B3,2013-03-16 02:16:00,
2013-03-15 22:21:00,36.7,29.2,29.77,SSE,156,0.0,0.0,74,0.00,,,0.00,WeatherCatV1.02B3,2013-03-16 02:21:00,
2013-03-15 22:26:00,36.5,29.0,29.77,SSE,156,0.0,1.0,74,0.00,,,0.00,WeatherCatV1.02B3,2013-03-16 02:26:00,
2013-03-15 22:31:00,36.3,28.8,29.77,SSE,156,0.0,1.0,74,0.00,,,0.00,WeatherCatV1.02B3,2013-03-16 02:31:00,
2013-03-15 22:36:00,36.3,28.8,29.78,SSE,156,0.0,0.0,74,0.00,,,0.00,WeatherCatV1.02B3,2013-03-16 02:36:00,
2013-03-15 22:41:00,36.1,28.6,29.78,SSE,156,0.0,2.0,74,0.00,,,0.00,WeatherCatV1.02B3,2013-03-16 02:41:00,
2013-03-15 22:46:00,36.0,28.5,29.78,SSE,156,0.0,0.0,74,0.00,,,0.00,WeatherCatV1.02B3,2013-03-16 02:46:00,
2013-03-15 22:51:00,35.7,28.2,29.78,SSE,156,0.0,2.0,74,0.00,,,0.00,WeatherCatV1.02B3,2013-03-16 02:51:00,
2013-03-15 22:56:00,35.6,28.5,29.77,SSE,156,1.0,1.0,75,0.00,,,0.00,WeatherCatV1.02B3,2013-03-16 02:56:00,
2013-03-15 23:01:00,35.5,28.0,29.78,SSE,156,0.0,1.0,74,0.00,,,0.00,WeatherCatV1.02B3,2013-03-16 03:01:00,
2013-03-15 23:06:00,35.5,28.0,29.78,SSE,156,0.0,0.0,74,0.00,,,0.00,WeatherCatV1.02B3,2013-03-16 03:06:00,
2013-03-15 23:11:00,35.4,28.0,29.78,SSE,156,0.0,1.0,74,0.00,,,0.00,WeatherCatV1.02B3,2013-03-16 03:11:00,
2013-03-15 23:16:00,35.4,27.6,29.78,SSE,156,0.0,0.0,73,0.00,,,0.00,WeatherCatV1.02B3,2013-03-16 03:16:00,
2013-03-15 23:21:00,35.3,27.5,29.78,SSE,156,0.0,1.0,73,0.00,,,0.00,WeatherCatV1.02B3,2013-03-16 03:21:00,
2013-03-15 23:26:00,35.3,27.2,29.78,SSE,156,0.0,1.0,72,0.00,,,0.00,WeatherCatV1.02B3,2013-03-16 03:26:00,
2013-03-15 23:31:00,35.5,26.7,29.78,SSE,156,0.0,3.0,70,0.00,,,0.00,WeatherCatV1.02B3,2013-03-16 03:31:00,
2013-03-15 23:36:00,35.6,26.5,29.78,SSE,156,0.0,1.0,69,0.00,,,0.00,WeatherCatV1.02B3,2013-03-16 03:36:00,
2013-03-15 23:41:00,35.5,26.4,29.78,SSE,156,2.0,2.0,69,0.00,,,0.00,WeatherCatV1.02B3,2013-03-16 03:41:00,
2013-03-15 23:46:00,35.5,26.0,29.78,SSE,156,0.0,1.0,68,0.00,,,0.00,WeatherCatV1.02B3,2013-03-16 03:46:00,
2013-03-15 23:51:00,35.5,26.0,29.78,SSE,156,1.0,2.0,68,0.00,,,0.00,WeatherCatV1.02B3,2013-03-16 03:51:00,
2013-03-15 23:56:00,35.5,25.6,29.78,SSE,156,2.0,2.0,67,0.00,,,0.00,WeatherCatV1.02B3,2013-03-16 03:56:00,